Regional Weather Roundup
Issued by NWS

Home | Current Version | Previous Version | Text Only | Print | Product List | Glossary On
Versions: 1 2 3 4 5 6 7 8 9 10 11 12 13 14 15 16 17 18 19 20 21 22 23 24 25 26 27 28 29 30 31 32 33 34 35 36 37 38 39 40 41 42 43 44 45 46 47 48 49 50
000
ASUS43 KMPX 272010
RWRMN
WEATHER ROUNDUP FOR MINNESOTA
NATIONAL WEATHER SERVICE TWIN CITIES/CHANHASSEN MN
300 PM CDT WED AUG 27 2014


NOTE: "FAIR" INDICATES FEW OR NO CLOUDS BELOW 12,000 FEET WITH NO
SIGNIFICANT WEATHER AND/OR OBSTRUCTIONS TO VISIBILITY. N/A MEANS
CURRENT SKY AND/OR WEATHER CONDITIONS ARE NOT AVAILABLE.

MNZ060>063-068>070-272100-
   Twin Cities Metro

CITY           SKY/WX    TMP DP  RH WIND       PRES   REMARKS
TWIN CITIES    PTSUNNY   76  54  46 VRB3      30.17F
ST PAUL        MOSUNNY   75  55  49 CALM      30.17F
CRYSTAL        PTSUNNY   76  54  46 CALM      30.16F
BLAINE         PTSUNNY   75  59  57 NE8       30.17F
LAKEVILLE      MOSUNNY   73  57  56 SE3       30.17F
EDEN PRAIRIE   MOSUNNY   76  53  44 CALM      30.16F
SOUTH ST PAUL  MOSUNNY   76  55  49 NE6       30.16F
LAKE ELMO      FAIR      73  55  53 CALM      30.19F
$$
MNZ001>005-007-008-013>017-022>024-027-028-272100-
   Northwest Minnesota

CITY           SKY/WX    TMP DP  RH WIND       PRES   REMARKS
BEMIDJI        MOSUNNY   69  51  51 W5        30.17F
HALLOCK        SUNNY     73  48  40 S6        30.13F
ROSEAU         SUNNY     72  50  46 CALM      30.15F
WARROAD        SUNNY     70  52  52 E7        30.15F
THIEF RVR FALL SUNNY     72  50  46 SW7       30.15F
CROOKSTON      SUNNY     72  52  49 SW7       30.15F
FOSSTON        SUNNY     72  52  49 CALM      30.17F
DETROIT LAKES  PTSUNNY   68  55  64 S7        30.18F
MOORHEAD       PTSUNNY   72  61  68 SE6       30.15F
PARK RAPIDS    CLOUDY    69  55  60 S7        30.18F
MAHNOMEN       MOCLDY    69  55  62 S3        30.16F
$$
MNZ006-009>011-018-025>026-272100-
   North Central Minnesota

CITY           SKY/WX    TMP DP  RH WIND       PRES   REMARKS
BAUDETTE       SUNNY     71  49  45 VRB6      30.15F
FLAG ISLAND    SUNNY     68  54  60 S8        30.15F
INTL FALLS     PTSUNNY   70  51  51 W9        30.15F
WASKISH        SUNNY     70  54  56 SW7       30.16F
BIG FORK       SUNNY     70  50  49 CALM      30.18F
LONGVILLE      SUNNY     72  57  60 S9        30.18S
GRAND RAPIDS   MOSUNNY   70  50  49 CALM      30.18F
CRANE LAKE     MOSUNNY   66  48  52 SW3       30.18F
ORR            PTSUNNY   70  48  46 SW6       30.15F
COOK           MOSUNNY   66  48  52 SW5       30.18F
WALKER         MOCLDY    70  50  49 SW9       30.17F
$$
MNZ012-019>021-037-272100-
   Northeast Minnesota

CITY           SKY/WX    TMP DP  RH WIND       PRES   REMARKS
DULUTH         MOSUNNY   70  47  43 NW10      30.19F
ELY            PTSUNNY   66  46  48 W8        30.18F
HIBBING        MOSUNNY   71  47  42 W7        30.18F
EVELETH        SUNNY     64  45  48 W7        30.19F
DULUTH HARBOR  MOSUNNY   70  55  60 E7        30.19F
TWO HARBORS    CLOUDY    66  48  52 CALM      30.17F
SILVER BAY     SUNNY     63  55  77 SE8       30.17F
GRAND MARAIS     N/A     63  55  75 W9        30.18F
G MARAIS ARPRT PTSUNNY   57  45  62 S9        30.21R
$$
MNZ029>031-032-039>041-046>048-054>057-064-272100-
   West Central Minnesota

CITY           SKY/WX    TMP DP  RH WIND       PRES   REMARKS
FERGUS FALLS   CLOUDY    70  55  60 S8        30.16F
WHEATON        MOSUNNY   70  59  68 SE10      30.16F
MORRIS         MOSUNNY   73  57  56 SE7       30.15F
ALEXANDRIA     PTSUNNY   71  57  61 VRB3      30.19F
ELBOW LAKE     PTSUNNY   71  59  65 E7        30.16F
WADENA         CLOUDY    66  57  72 S7        30.18F
GLENWOOD       MOSUNNY   72  57  60 SE3       30.18F
APPLETON       MOSUNNY   75  57  53 S8        30.14F
BENSON         MOSUNNY   73  57  56 S6        30.16F
ORTONVILLE     MOSUNNY   73  57  56 SE8       30.14F
MADISON        PTSUNNY   75  61  60 SE8       30.14F
WILLMAR        FAIR      73  57  56 SE6       30.18F
$$
MNZ033>034-036-042>043-049>051-058-059-272100-
   Central Minnesota

CITY           SKY/WX    TMP DP  RH WIND       PRES   REMARKS
ST CLOUD       PTSUNNY   77  56  48 VRB3      30.18F
SAUK CENTRE    CLOUDY    71  56  58 CALM      30.18F
PAYNESVILLE    MOSUNNY   71  56  60 E5        30.18F HAZE
AITKIN         CLOUDY    70  57  64 S3        30.19S
PINE RIVER     PTSUNNY   68  57  68 S3        30.21F
BRAINERD       CLOUDY    66  56  70 S3        30.19F
STAPLES        CLOUDY    66  55  68 SW6       30.19F
LONG PRAIRIE   PTSUNNY   68  55  64 S3        30.19F
LITTLE FALLS   PTSUNNY   68  55  64 CALM      30.19F
LITCHFIELD     MOSUNNY   75  59  57 SE3       30.18S
BUFFALO        MOSUNNY   74  55  51 CALM      30.18F
MAPLE LAKE     SUNNY     75  58  56 E3        30.19S
$$
MNZ037-044-045-052-053-272100-
   East Central Minnesota

CITY           SKY/WX    TMP DP  RH WIND       PRES   REMARKS
PRINCETON      PTSUNNY   73  57  56 NE3       30.19F
MORA           CLOUDY    66  52  59 CALM      30.22S
CAMBRIDGE      MOSUNNY   73  55  53 CALM      30.17F
RUSH CITY      CLOUDY    69  54  58 CALM      30.20F
MOOSE LAKE     PTSUNNY   70  50  49 CALM      30.18F
HINCKLEY       CLOUDY    68  54  60 S5        30.20F
CLOQUET        MOSUNNY   70  46  43 W8        30.19F
MCGREGOR       PTSUNNY   70  55  60 S6        30.20F
$$
MNZ071>073-080-081-089-090-097-098-272100-
   Southwest Minnesota

CITY           SKY/WX    TMP DP  RH WIND       PRES   REMARKS
MONTEVIDEO     MOSUNNY   75  61  60 S3        30.16F
GRANITE FALLS  PTSUNNY   74  58  56 SE6       30.16F
CANBY          MOSUNNY   73  60  63 SE9       30.15F
OLIVIA         MOSUNNY   75  55  50 SE6       30.16S
PIPESTONE      MOSUNNY   72  61  68 SE9       30.15F
WINDOM         PTSUNNY   70  57  64 SE7       30.17F
JACKSON        CLOUDY    72  59  64 SE9       30.18F
TRACY          PTSUNNY   75  60  60 SE10      30.16F
SLAYTON        PTSUNNY   71  60  68 CALM      30.17F
$$
MNZ065>067-074>077-082>085-091>093-272100-
   South Central Minnesota

CITY           SKY/WX    TMP DP  RH WIND       PRES   REMARKS
MANKATO        PTSUNNY   73  57  56 S7        30.17F
NEW ULM        PTSUNNY   73  59  60 SE8       30.16F
ST JAMES       PTSUNNY   75  57  53 E8        30.18F
GLENCOE        MOSUNNY   76  55  48 CALM      30.16F
FARIBAULT      PTSUNNY   77  54  44 S6        30.18F
OWATONNA       PTSUNNY   73  55  53 E5        30.18F
WASECA         PTSUNNY   72  54  53 SE3       30.20F
ALBERT LEA     CLOUDY    73  57  56 SE5       30.18F
$$
MNZ078>079-086>088-094>096-272100-
   Southeast Minnesota

CITY           SKY/WX    TMP DP  RH WIND       PRES   REMARKS
ROCHESTER      CLOUDY    72  58  61 VRB5      30.19F
RED WING       MOSUNNY   75  55  50 S5        30.15F
STANTON        MOSUNNY   74  55  51 SW3       30.16F
DODGE CENTER   PTSUNNY   72  59  64 CALM      30.19F
WINONA         PTSUNNY   73  59  60 NW5       30.18F
AUSTIN         CLOUDY    72  57  60 SE3       30.18F
PRESTON        CLOUDY    69  61  75 CALM      30.20F
$$
ABBREVIATIONS USED IN REMARKS
   TC - TEMPERATURES IN CELSIUS
  WCI - WIND CHILL INDEX
   HX - HEAT INDEX
  VSB - VISIBILITY
$$


USA.gov is the U.S. government's official web portal to all federal, state and local government web resources and services.